Kimball, NE

3:37 PM MDT on August 24, 2016 (GMT -0600)
Kimball Municipal-Arraj

Weather History for KIBM - February, 2013

Change the Weather History Date:

Sunday, February 10, 2013

  Actual Average (KSNY) Record (KSNY)
Temperature  
Mean Temperature 22 °F 31 °F  
Max Temperature 28 °F 44 °F 72 °F (1999)
Min Temperature 17 °F 18 °F -11 °F (1986)
Degree Days  
Heating Degree Days 42 34  
Month to date heating degree days 348  
Since 1 July heating degree days 4005  
Cooling Degree Days 0 0  
Month to date cooling degree days 0  
Year to date cooling degree days 0  
Moisture  
Dew Point 20 °F    
Average Humidity 82    
Maximum Humidity 93    
Minimum Humidity 65    
Precipitation  
Precipitation 0.00 in 0.01 in 0.67 in (1998)
Month to date precipitation 0.09  
Year to date precipitation 0.29  
Sea Level Pressure  
Sea Level Pressure 29.71 in    
Wind  
Wind Speed 23 mph (NNW)    
Max Wind Speed 31 mph    
Max Gust Speed 45 mph    
Visibility 5 miles    
Events Snow    
T = Trace of Precipitation, MM = Missing Value Source: NWS Daily Summary

Daily Weather History Graph

Daily Weather History Graph

Search for Another Location

Airport or City:

Trip Planner

Search our weather history database for the weather conditions in past years. The results will help you decide how hot, cold, wet, or windy it might be!

Date:

Astronomy

Feb. 10, 2013 Rise Set
Actual Time 7:55 AM CST 6:23 PM CST
Civil Twilight 7:26 AM CST 6:51 PM CST
Nautical Twilight 6:54 AM CST 7:24 PM CST
Astronomical Twilight 6:22 AM CST 7:56 PM CST
Moon 7:45 AM CST (2/10) 7:17 PM CST (2/10)
Length of Visible Light 11h 24m
Length of Day
10h 27m
New Moon, 0% of the Moon is Illuminated
Feb 10
New Moon
Feb 17
First Quarter
Feb 25
Full
Mar 4
Last Quarter
Mar 11
New

Hourly Weather History & Observations

Time (CST) Temp. Windchill Dew Point Humidity Pressure Visibility Wind Dir Wind Speed Gust Speed Precip Events Conditions
12:15 AM 24.8 °F 10.0 °F 21.9 °F 89% 29.48 in 3.0 mi NNW 21.9 mph 28.8 mph N/A Snow Light Snow
12:35 AM 25.2 °F 10.4 °F 22.1 °F 88% 29.48 in 5.0 mi NNW 21.9 mph 27.6 mph N/A Snow Light Snow
12:55 AM 24.8 °F 9.0 °F 21.2 °F 86% 29.48 in 4.0 mi North 25.3 mph 33.4 mph N/A Snow Light Snow
1:15 AM 24.8 °F 11.9 °F 22.1 °F 89% 29.48 in 2.5 mi NNW 16.1 mph 26.5 mph N/A Snow Light Snow
1:35 AM 25.5 °F 11.6 °F 23.7 °F 93% 29.48 in 1.2 mi NNW 19.6 mph - N/A Snow Light Snow
1:55 AM 26.2 °F 9.8 °F 23.7 °F 90% 29.47 in 2.0 mi NNW 29.9 mph 36.8 mph N/A Snow Light Snow
2:15 AM 26.2 °F 10.9 °F 23.5 °F 90% 29.48 in 1.8 mi NNW 25.3 mph 35.7 mph N/A Snow Light Snow
2:35 AM 25.5 °F 8.8 °F 22.5 °F 88% 29.49 in 1.2 mi North 29.9 mph 35.7 mph N/A Snow Light Snow
2:55 AM 25.7 °F 11.2 °F 23.9 °F 93% 29.49 in 0.8 mi NNW 21.9 mph 29.9 mph N/A Snow Snow
3:15 AM 25.7 °F 10.8 °F 23.4 °F 91% 29.49 in 1.2 mi NNW 23.0 mph 33.4 mph N/A Snow Light Snow
3:35 AM 25.5 °F 9.4 °F 22.8 °F 89% 29.49 in 1.0 mi NNW 27.6 mph 32.2 mph N/A Snow Light Snow
3:55 AM 25.2 °F 8.3 °F 22.5 °F 89% 29.50 in 1.8 mi NNW 29.9 mph 36.8 mph N/A Snow Light Snow
4:15 AM 25.0 °F 9.2 °F 22.5 °F 90% 29.50 in 1.8 mi NNW 25.3 mph 36.8 mph N/A Snow Light Snow
4:35 AM 25.0 °F 9.2 °F 22.3 °F 89% 29.51 in 3.0 mi NNW 25.3 mph 35.7 mph N/A Snow Light Snow
4:55 AM 25.3 °F 9.1 °F 22.1 °F 87% 29.51 in 3.0 mi NNW 27.6 mph 35.7 mph N/A Snow Light Snow
5:15 AM 25.3 °F 8.9 °F 22.1 °F 87% 29.52 in 3.0 mi NNW 28.8 mph 36.8 mph N/A Snow Light Snow
5:35 AM 25.3 °F 9.7 °F 22.1 °F 87% 29.53 in 3.0 mi NNW 25.3 mph 34.5 mph N/A Snow Light Snow
5:55 AM 25.2 °F 9.8 °F 22.5 °F 89% 29.54 in 2.5 mi NNW 24.2 mph 31.1 mph N/A Snow Light Snow
6:15 AM 25.3 °F 9.7 °F 22.6 °F 89% 29.55 in 2.0 mi NNW 25.3 mph 32.2 mph N/A Snow Light Snow
6:35 AM 25.2 °F 9.2 °F 22.5 °F 89% 29.56 in 2.0 mi NNW 26.5 mph 33.4 mph N/A Snow Light Snow
6:55 AM 25.0 °F 9.2 °F 22.5 °F 90% 29.57 in 2.0 mi NW 25.3 mph 32.2 mph N/A Snow Light Snow
7:15 AM 25.2 °F 10.4 °F 22.6 °F 90% 29.57 in 2.0 mi NW 21.9 mph 29.9 mph N/A Snow Light Snow
7:35 AM 25.5 °F 10.0 °F 22.5 °F 88% 29.59 in 3.0 mi NW 25.3 mph 31.1 mph N/A Snow Light Snow
7:55 AM 25.5 °F 10.3 °F 22.5 °F 88% 29.60 in 2.5 mi NW 24.2 mph 33.4 mph N/A Snow Light Snow
8:15 AM 25.5 °F 10.6 °F 22.6 °F 89% 29.61 in 1.8 mi NW 23.0 mph 32.2 mph N/A Snow Light Snow
8:35 AM 25.3 °F 10.0 °F 22.8 °F 90% 29.62 in 0.8 mi NW 24.2 mph 31.1 mph N/A Snow Light Snow
8:55 AM 25.5 °F 10.3 °F 22.8 °F 89% 29.63 in 1.0 mi NW 24.2 mph 33.4 mph N/A Snow Light Snow
9:15 AM 25.7 °F 11.2 °F 23.0 °F 89% 29.64 in 1.0 mi NW 21.9 mph 31.1 mph N/A Snow Light Snow
9:35 AM 26.4 °F 11.2 °F 23.5 °F 89% 29.65 in 1.2 mi NW 25.3 mph 34.5 mph N/A Snow Light Snow
9:55 AM 26.6 °F 12.0 °F 23.7 °F 89% 29.65 in 1.5 mi NW 23.0 mph 29.9 mph N/A Snow Light Snow
10:15 AM 27.1 °F 12.7 °F 23.7 °F 87% 29.66 in 1.8 mi NW 23.0 mph 31.1 mph N/A   Overcast
10:35 AM 27.5 °F 13.5 °F 23.9 °F 86% 29.67 in 2.5 mi NW 21.9 mph 31.1 mph N/A   Overcast
10:55 AM 27.9 °F 12.8 °F 24.1 °F 86% 29.68 in 1.8 mi NW 26.5 mph 35.7 mph N/A Snow Light Snow
11:15 AM 27.5 °F 12.3 °F 23.9 °F 86% 29.69 in 1.2 mi NW 26.5 mph 34.5 mph N/A Snow Light Snow
11:35 AM 27.5 °F 11.3 °F 23.7 °F 86% 29.70 in 1.0 mi NW 31.1 mph 39.1 mph N/A Snow Light Snow
11:55 AM 27.9 °F 11.8 °F 23.5 °F 84% 29.71 in 1.5 mi NW 31.1 mph 38.0 mph N/A Snow Light Snow
12:15 PM 28.0 °F 12.8 °F 23.7 °F 84% 29.71 in 2.5 mi NW 27.6 mph 38.0 mph N/A Snow Light Snow
12:35 PM 27.7 °F 11.8 °F 23.7 °F 85% 29.72 in 1.0 mi NW 29.9 mph 39.1 mph N/A Snow Light Snow
12:55 PM 28.2 °F 12.8 °F 23.5 °F 83% 29.72 in 2.0 mi NW 28.8 mph 39.1 mph N/A Snow Light Snow
1:15 PM 28.6 °F 12.7 °F 23.2 °F 80% 29.73 in 3.0 mi NNW 31.1 mph 39.1 mph N/A Snow Light Snow
1:35 PM 28.6 °F 13.8 °F 23.4 °F 81% 29.73 in 2.0 mi NNW 26.5 mph 36.8 mph N/A   Haze
1:55 PM 28.4 °F 13.0 °F 23.2 °F 81% 29.73 in 4.0 mi NW 28.8 mph 36.8 mph N/A   Haze
2:15 PM 28.8 °F 14.0 °F 23.5 °F 81% 29.74 in 4.0 mi NW 26.5 mph 40.3 mph N/A Snow Light Snow
2:35 PM 27.7 °F 11.8 °F 21.0 °F 76% 29.75 in 10.0 mi NNW 29.9 mph 44.9 mph N/A   Mostly Cloudy
2:55 PM 27.9 °F 12.3 °F 21.0 °F 75% 29.76 in 7.0 mi NNW 28.8 mph 36.8 mph N/A Snow Light Snow
3:15 PM 27.3 °F 12.7 °F 21.2 °F 78% 29.77 in 7.0 mi NNW 24.2 mph 31.1 mph N/A   Scattered Clouds
3:35 PM 28.8 °F 14.9 °F 20.7 °F 72% 29.77 in 10.0 mi NNW 23.0 mph 32.2 mph N/A   Mostly Cloudy
3:55 PM 28.2 °F 13.0 °F 20.5 °F 73% 29.79 in 7.0 mi NNW 27.6 mph 33.4 mph N/A   Overcast
4:15 PM 27.7 °F 13.1 °F 21.0 °F 76% 29.80 in 10.0 mi NW 24.2 mph 32.2 mph N/A   Overcast
4:35 PM 27.3 °F 13.6 °F 18.5 °F 69% 29.82 in 10.0 mi NW 20.7 mph 33.4 mph N/A   Mostly Cloudy
4:55 PM 27.3 °F 13.6 °F 17.6 °F 67% 29.83 in 10.0 mi NNW 20.7 mph 29.9 mph N/A   Scattered Clouds
5:15 PM 27.1 °F 12.7 °F 16.7 °F 65% 29.84 in 10.0 mi NNW 23.0 mph 28.8 mph N/A   Scattered Clouds
5:35 PM 26.2 °F 13.8 °F 18.3 °F 72% 29.85 in 10.0 mi NW 16.1 mph 21.9 mph N/A   Scattered Clouds
5:55 PM 25.5 °F 12.9 °F 17.2 °F 71% 29.86 in 10.0 mi NW 16.1 mph 23.0 mph N/A   Clear
6:15 PM 24.8 °F 12.4 °F 16.5 °F 71% 29.87 in 10.0 mi NW 15.0 mph 23.0 mph N/A   Clear
6:35 PM 23.9 °F 11.7 °F 15.8 °F 71% 29.88 in 10.0 mi NW 13.8 mph - N/A   Clear
6:55 PM 23.0 °F 10.6 °F 15.3 °F 72% 29.89 in 10.0 mi NNW 13.8 mph - N/A   Clear
7:15 PM 22.3 °F 10.2 °F 14.4 °F 72% 29.90 in 10.0 mi NNW 12.7 mph - N/A   Clear
7:35 PM 21.4 °F 10.4 °F 14.0 °F 73% 29.91 in 10.0 mi NNW 10.4 mph - N/A   Clear
7:55 PM 20.1 °F 8.8 °F 14.0 °F 77% 29.91 in 10.0 mi NNW 10.4 mph - N/A   Clear
8:15 PM 19.4 °F 7.9 °F 13.6 °F 78% 29.91 in 10.0 mi NW 10.4 mph - N/A   Clear
8:35 PM 18.5 °F 7.5 °F 13.1 °F 79% 29.91 in 10.0 mi NW 9.2 mph - N/A   Clear
8:55 PM 18.5 °F 6.1 °F 13.1 °F 79% 29.92 in 10.0 mi NNW 11.5 mph - N/A   Clear
9:15 PM 18.9 °F 5.9 °F 13.3 °F 79% 29.93 in 10.0 mi NNW 12.7 mph - N/A   Clear
9:35 PM 18.9 °F 5.3 °F 12.7 °F 77% 29.94 in 10.0 mi NNW 13.8 mph - N/A   Clear
9:55 PM 18.5 °F 4.3 °F 12.4 °F 77% 29.95 in 10.0 mi NNW 15.0 mph - N/A   Clear
10:15 PM 18.3 °F 4.1 °F 12.2 °F 77% 29.96 in 10.0 mi NNW 15.0 mph - N/A   Clear
10:35 PM 18.0 °F 3.1 °F 11.8 °F 77% 29.95 in 10.0 mi NNW 16.1 mph 19.6 mph N/A   Clear
10:55 PM 17.6 °F 3.7 °F 11.3 °F 76% 29.96 in 10.0 mi NNW 13.8 mph - N/A   Clear
11:15 PM 17.6 °F 3.7 °F 11.3 °F 76% 29.96 in 10.0 mi NNW 13.8 mph - N/A   Clear
11:35 PM 17.6 °F 3.2 °F 10.8 °F 75% 29.96 in 10.0 mi NNW 15.0 mph - N/A   Clear
11:55 PM 17.4 °F 4.7 °F 10.4 °F 74% 29.98 in 10.0 mi NW 11.5 mph 16.1 mph N/A   Scattered Clouds